Other Public Products
Issued by NWS Charleston, SC

Current Version | Previous Version | Graphics & Text | Print | Product List | Glossary On
Versions: 1 2 3 4 5 6 7 8 9 10 11 12 13 14 15 16 17 18 19 20 21 22 23 24 25 26 27 28 29 30 31 32 33 34 35 36 37 38 39 40 41 42 43 44 45 46 47 48 49 50
000
FPUS82 KCHS 230812
OPUCHS

TEST...KCHS/KSAV Gateway Observations...TEST
National Weather Service Charleston SC
400 AM EDT WED AUG 23 2017

NOTE: "fair" indicates few or no clouds below 12,000 feet with no
significant weather and/or obstructions to visibility.

SCZ050-WAZ558-NCZ071-TXZ119-213-PAZ071-DCZ001-FLZ074-172-MI076-
NYZ176-178-MAZ016-IL014-TNZ027-NJZ106-GAZ044-MD014-230900-

...Gateway Observations for Charleston International...

CITY           SKY/WX    TMP DP  RH WIND       PRES   REMARKS
Chas Airport   PTCLDY    77  76  96 SW6       29.95F
Seattle        CLEAR     62  57  83 SW5       30.06R
Charlotte      CLEAR     76  74  93 SW6       29.92F
Dallas DFW     CLOUDY    80  72  76 N25G35    29.98F
Dallas Love    CLOUDY    83  72  69 N18G26    29.99R
Philladelphia  CLOUDY    76  72  87 W6        29.78F
Wash National  MOCLDY    79  69  71 W6        29.81S
Baltimore      MOCLDY    76  70  82 W6        29.80S
Miami          MOCLDY    79  75  87 CALM      29.92F
Detroit        CLEAR     59  53  80 SW6       29.93S
Newark         MOCLDY    74  72  93 SW8       29.75F
Laguardia      CLOUDY    74  73  97 SW9       29.74F
J F K          CLOUDY    74  74 100 SW14      29.77F
Boston Logan   CLOUDY    75  73  93 SW12      29.68S
Ft. Lauderdale CLOUDY    81  75  82 CALM      29.92F
Chicago O`Hare CLEAR     63  50  62 NW10      30.01S
Chicago Midway CLEAR     63  51  65 NW7       30.01S
Houston Bush   PTCLDY    78  74  87 CALM      29.99S
Houston Hobby  PTCLDY    80  73  79 CALM      29.98S
Nashville      CLOUDY    72  70  93 NW7       29.99F
Atlanta        CLOUDY    75  72  90 CALM      29.98F

$$

GAZ044-118-TXZ119-213-NCZ071-DCZ001-MDZ014-506-PAZ021-071-NJZ106-
NYZ176-178-MAZ106-OHZ011-021-055-MIZ076-KYZ091-ILZ014-INZ047-
MNZ060-ONZ431-230900-

...Gateway Observations for Savannah International...

CITY           SKY/WX    TMP DP  RH WIND       PRES   REMARKS
Savannah Arpt  PTCLDY    77  75  93 SW5       29.97F
Atlanta        CLOUDY    75  72  90 CALM      29.98F
Charlotte      CLEAR     76  74  93 SW6       29.92F
Dallas DFW     CLOUDY    80  72  76 N25G35    29.98F
Houston Bush   PTCLDY    78  74  87 CALM      29.99S
Wash National  MOCLDY    79  69  71 W6        29.81S
Wash Dulles    CLOUDY    76  69  79 NW10      29.82S
Baltimore      MOCLDY    76  70  82 W6        29.80S
Philadelphia   CLOUDY    76  72  87 W6        29.78F
Newark         MOCLDY    74  72  93 SW8       29.75F
Laguardia      CLOUDY    74  73  97 SW9       29.74F
J F K          CLOUDY    74  74 100 SW14      29.77F
Boston         CLOUDY    75  73  93 SW12      29.68S
Pittsburg      CLOUDY    66  64  93 NW6       29.91S
Akron          CLOUDY    66  63  90 NW5       29.93S
Cleveland      PTCLDY    63  56  78 SW3       29.94R
Cincinnati     MOCLDY    68  62  81 N9        29.98S
Columbus       PTCLDY    64  58  82 NW7       29.95S
Detroit        CLEAR     59  53  80 SW6       29.93S
Chicago O`Hare CLEAR     63  50  62 NW10      30.01S
Minneapolis    CLEAR     60  49  66 W5        30.07R
Indianapolis   MOCLDY    61  58  90 NW8       30.00S
Toronto Canada CLEAR     59  54  82 W9        29.80S

$$




USA.gov is the U.S. government's official web portal to all federal, state and local government web resources and services.